Location: South Range
(44.4886°N, 65.7879°W)
Time: 12:06:12
(UTC-03:00)

Iridium 56 - Visible Passes

Search period start: 23 July 2016 00:00
Search period end: 02 August 2016 00:00
Orbit: 776 x 779 km, 86.4° (Epoch: 23 July)

Date Brightness Start Highest point End Pass type
(mag) Time Alt. Az. Time Alt. Az. Time Alt. Az.
23 Jul 5.3 01:33:25 10° N 01:38:40 85° W 01:39:00 78° SSW visible
23 Jul 7.8 03:17:24 10° WNW 03:18:29 11° WNW 03:19:28 10° W visible
24 Jul 5.8 00:59:58 10° N 01:05:06 54° E 01:05:29 53° E visible
24 Jul 7.2 02:41:44 10° NW 02:45:22 19° W 02:45:56 19° W visible
25 Jul 6.6 00:26:48 10° NNE 00:31:24 30° ENE 00:31:57 30° E visible
25 Jul 6.5 02:07:27 10° NNW 02:12:07 34° W 02:12:25 33° W visible
25 Jul 7.3 23:54:05 10° NNE 23:57:35 18° ENE 23:58:26 17° E visible
26 Jul 5.7 01:33:36 10° N 01:38:45 60° W 01:38:54 60° W visible
27 Jul 5.4 01:00:01 10° N 01:05:15 77° E 01:05:24 76° ESE visible
27 Jul 7.6 02:42:43 10° NW 02:45:15 14° WNW 02:45:51 13° W visible
28 Jul 6.1 00:26:39 10° N 00:31:38 43° E 00:31:53 42° E visible
28 Jul 7.0 02:07:56 10° NNW 02:12:04 24° W 02:12:21 24° W visible
28 Jul 6.9 23:53:37 10° NNE 23:57:53 25° ENE 23:58:23 24° E visible
29 Jul 6.2 01:33:52 10° NNW 01:38:46 42° W 01:38:51 42° W visible
29 Jul 7.5 23:21:14 10° NE 23:23:59 14° ENE 23:24:54 14° E visible
30 Jul 5.5 01:00:07 10° N 01:05:21 76° W 01:05:22 76° W visible
31 Jul 5.6 00:26:37 10° N 00:31:49 61° E 00:31:52 61° E visible
31 Jul 7.4 02:08:39 10° NW 02:11:59 17° WNW 02:12:20 17° W visible
31 Jul 6.4 23:53:23 10° NNE 23:58:08 34° E 23:58:23 34° E visible
01 Aug 6.8 01:34:15 10° NNW 01:38:45 30° W 01:38:51 30° W visible
01 Aug 7.1 23:20:32 10° NNE 23:24:20 20° ENE 23:24:55 20° E visible
